Location: Newark
(43.0000°N, 1.6781°W)
Time: 00:23:25
(UTC+00:00)

LilacSat-2 - Pass Details

Date: 02 December 2022
Orbit: 504 x 521 km, 97.5° (Epoch: 08 February)

Event Time Altitude Azimuth Distance (km) Brightness Sun altitude
Rises 18:17:04 0° 209° (SSW) 2,640 ? -18.5°
Reaches altitude 10° 18:19:59 10° 234° (SW) 1,754 ? -19.0°
Maximum altitude 18:22:06 14° 268° (W) 1,496 ? -19.4°
Drops below altitude 10° 18:24:13 10° 302° (WNW) 1,756 ? -19.8°
Sets 18:27:09 0° 328° (NNW) 2,644 ? -20.3°
